Regional Weather Roundup
Issued by NWS Bismarck, ND

Home | Current Version | Previous Version | Text Only | Print | Product List | Glossary On
Versions: 1 2 3 4 5 6 7 8 9 10 11 12 13 14 15 16 17 18 19 20 21 22 23 24 25 26 27 28 29 30 31 32 33 34 35 36 37 38 39 40 41 42 43 44 45 46 47 48 49 50
000
ASUS43 KBIS 230710
RWRBIS

NWR BROADCAST TEXT
NATIONAL WEATHER SERVICE BISMARCK ND
200 AM CDT WED AUG 23 2017

NOTE: "FAIR" INDICATES FEW OR NO CLOUDS BELOW 12,000 FEET WITH NO
SIGNIFICANT WEATHER AND/OR OBSTRUCTIONS TO VISIBILITY.


CITY           SKY/WX    TMP DP  RH WIND       PRES   REMARKS
WILLISTON      CLEAR     63  41  44 S5        30.07S
MINOT          CLOUDY    59  45  59 SE3       30.07F
MINOT AFB      CLOUDY    54  44  69 S3        30.06S
BISMARCK       CLEAR     50  47  89 E3        30.12F
DICKINSON      CLEAR     54  41  61 S9        30.11F
GARRISON         N/A     57  50  77 E3        30.09F
HETTINGER ARPT CLEAR     56  44  64 E8        30.14S
JAMESTOWN      CLEAR     49  46  90 CALM      30.11S
CARRINGTON     FAIR      50  48  93 SW3       30.13S
HAZEN            N/A     50  46  87 CALM      30.12S
LINTON         FAIR      46  43  87 E10       30.15S
MANDAN         FAIR      52  46  82 S3        30.13F
RUGBY          FAIR      54  46  76 S7        30.09S
STANLEY        FAIR      55  43  62 S6        30.11F
TIOGA          FAIR      61  45  55 S13       30.09S
WATFORD CITY   FAIR      54  39  58 CALM      30.08S
$$

CITY           SKY/WX    TMP DP  RH WIND       PRES   REMARKS
GRAND FORKS    CLEAR     49  47  93 NW3       30.08F
GRAND FORKS AF CLEAR     45  43  93 SW3       30.09S
DEVILS LAKE    CLEAR     52  47  83 E5        30.10F
FARGO          CLEAR     51  46  83 CALM      30.09S
CANDO          FAIR      48  48 100 CALM      30.12S
CAVALIER       FAIR      48  46  93 CALM      30.08F
GRAFTON        FAIR      48  48 100 CALM      30.10S
GWINNER        SUNNY     52  48  87 CALM      30.11S
LANGDON        FAIR      46  46 100 SE5       30.10S
ROLLA          FAIR      46  45  93 CALM      30.11R
WALHALLA       FAIR      48  48 100 CALM      30.08F
$$

CITY           SKY/WX    TMP DP  RH WIND       PRES   REMARKS
ABERDEEN       CLEAR     48  47  96 CALM      30.13S
MOBRIDGE       CLEAR     56  47  71 E7        30.11S
BUFFALO          N/A     58  46  64 E9        30.05F
RAPID CITY     CLEAR     58  47  66 SE3       30.08S
GLASGOW        PTCLDY    64  35  34 E13       30.02S
WOLF POINT     CLEAR     61  37  41 N3        30.04S
GLENDIVE       CLEAR     65  40  39 S8        30.09R
MILES CITY     CLEAR     68  38  33 NE3       30.03F
BAKER          CLEAR     60  42  51 E12       30.12S
$$

CITY           SKY/WX    TMP DP  RH WIND       PRES   REMARKS
BILLINGS       CLEAR     66  34  30 N7        30.05S
GREAT FALLS    CLEAR     58  32  37 W6        30.03R
REGINA         CLEAR     59  43  55 E9        30.01S
ESTEVAN        CLEAR     54  43  66 SE7       30.04F
$$





USA.gov is the U.S. government's official web portal to all federal, state and local government web resources and services.